Weather History for Martinsburg, WV

Change the Weather History Date:

Tuesday, November 25, 2014

  Actual Average Record
Temperature  
Mean Temperature 49 °F 41 °F  
Max Temperature 61 °F 50 °F 80 °F (1973)
Min Temperature 36 °F 32 °F 11 °F (1970)
Degree Days  
Heating Degree Days 16 24  
Month to date heating degree days 541 497  
Since 1 July heating degree days 829 943  
Cooling Degree Days 0 0  
Month to date cooling degree days 0 0  
Year to date cooling degree days 958 895  
Moisture  
Dew Point 28 °F    
Average Humidity 50    
Maximum Humidity 70    
Minimum Humidity 30    
Precipitation  
Precipitation 0.00 in 0.11 in 2.41 in (1950)
Month to date precipitation 1.30 2.58  
Year to date precipitation 31.50 35.44  
Sea Level Pressure  
Sea Level Pressure 30.03 in    
Wind  
Wind Speed 9 mph (West)    
Max Wind Speed 30 mph    
Max Gust Speed 35 mph    
Visibility 10 miles    
Events      
T = Trace of Precipitation, MM = Missing Value Source: NWS Daily Summary

Daily Weather History Graph

Daily Weather History Graph

Search for Another Location

Airport:

Trip Planner

Search our weather history database for the weather conditions in past years. The results will help you decide how hot, cold, wet, or windy it might be!

Date:

Astronomy

Nov. 25, 2014 Rise Set
Actual Time 7:06 AM EST 4:50 PM EST
Civil Twilight 6:37 AM EST 5:20 PM EST
Nautical Twilight 6:04 AM EST 5:53 PM EST
Astronomical Twilight 5:32 AM EST 6:25 PM EST
Moon 9:50 AM EST (11/25) 8:13 PM EST (11/25)
Length of Visible Light 10h 42m
Length of Day
9h 44m
Waxing Crescent, 12% of the Moon is Illuminated
Nov 25
Waxing Crescent
Nov 29
First Quarter
Dec 6
Full
Dec 14
Last Quarter
Dec 21
New

Hourly Weather History & Observations

Time (EST) Temp. Windchill Dew Point Humidity Pressure Visibility Wind Dir Wind Speed Gust Speed Precip Events Conditions
12:53 AM 60.1 °F - 30.0 °F 32% 29.80 in 10.0 mi West 10.4 mph - N/A   Clear
1:53 AM 60.1 °F - 34.0 °F 38% 29.85 in 10.0 mi WNW 13.8 mph - N/A   Clear
2:53 AM 55.9 °F - 36.0 °F 47% 29.89 in 10.0 mi West 23.0 mph 28.8 mph N/A   Clear
3:53 AM 54.0 °F - 34.0 °F 47% 29.91 in 10.0 mi WNW 21.9 mph 31.1 mph N/A   Clear
4:53 AM 52.0 °F - 30.0 °F 43% 29.95 in 10.0 mi WNW 21.9 mph 32.2 mph N/A   Clear
5:53 AM 50.0 °F - 28.9 °F 44% 29.99 in 10.0 mi West 10.4 mph - N/A   Clear
6:53 AM 48.9 °F - 28.9 °F 46% 30.00 in 10.0 mi WNW 5.8 mph - N/A   Clear
7:53 AM 50.0 °F - 28.0 °F 43% 30.03 in 10.0 mi West 9.2 mph - N/A   Clear
8:53 AM 50.0 °F - 27.0 °F 41% 30.06 in 10.0 mi West 13.8 mph - N/A   Clear
9:53 AM 51.1 °F - 26.1 °F 38% 30.07 in 10.0 mi West 16.1 mph - N/A   Clear
10:53 AM 52.0 °F - 26.1 °F 37% 30.07 in 10.0 mi West 13.8 mph 23.0 mph N/A   Clear
11:53 AM 53.1 °F - 26.1 °F 35% 30.06 in 10.0 mi West 10.4 mph - N/A   Clear
12:53 PM 55.9 °F - 26.1 °F 32% 30.05 in 10.0 mi WSW 10.4 mph - N/A   Clear
1:53 PM 55.0 °F - 25.0 °F 31% 30.04 in 10.0 mi WNW 8.1 mph - N/A   Clear
2:53 PM 55.9 °F - 25.0 °F 30% 30.03 in 10.0 mi WSW 6.9 mph - N/A   Clear
3:53 PM 54.0 °F - 26.1 °F 34% 30.04 in 10.0 mi SW 5.8 mph - N/A   Clear
4:53 PM 51.1 °F - 24.1 °F 35% 30.05 in 10.0 mi Calm Calm - N/A   Clear
5:53 PM 44.1 °F - 26.1 °F 49% 30.08 in 10.0 mi Calm Calm - N/A   Clear
6:53 PM 41.0 °F - 26.1 °F 55% 30.11 in 10.0 mi Calm Calm - N/A   Clear
7:53 PM 37.9 °F 34.4 °F 27.0 °F 65% 30.12 in 10.0 mi WSW 4.6 mph - N/A   Clear
8:53 PM 39.0 °F - 27.0 °F 62% 30.13 in 10.0 mi Calm Calm - N/A   Clear
9:53 PM 37.9 °F - 27.0 °F 65% 30.14 in 10.0 mi Calm Calm - N/A   Clear
10:53 PM 37.9 °F - 28.9 °F 70% 30.15 in 10.0 mi Calm Calm - N/A   Clear
11:53 PM 39.0 °F - 30.0 °F 70% 30.16 in 10.0 mi Calm Calm - N/A   Clear